Weather in Dzhebariki-Khaya

Russia / Sakha (Yakutia) Republic     62°13′01″N   135°51′49″E
temp.,
°C
wind,
m/s
gust,
m/s
humid.,
%
clouds,
%
prec.,
mm/h
press.,
hPa
HPBL,
m
19 may, wed
wed1900:00−2nne11690 0.0 100510
03:00−3n22730 0.0 100417
06:00+2nne23525 0.0 1004299
09:00+6n35316 0.0 10041771
12:00+8nnw4528100 0.0 10032034
15:00+9nnw4625100 0.0 10022140
18:00+8nnw452998 0.0 10031999
21:00+3nnw2549100 0.0 100598
20 may, thu
thu2000:000wnw2356100 0.0 100658
03:00−1wnw1256100 0.0 100742
06:00+2nw1340100 0.0 1008262
09:00+8nw352373 0.0 10071221
12:00+11nnw451976 0.0 10062250
15:00+12nw441899 0.0 10062508
18:00+10nnw342373 0.0 10062010
21:00+4nw233775 0.0 100738
21 may, fri
fri2100:00+2nnw224562 0.0 100718
03:000nw115459 0.0 100811
06:00+4n124599 0.0 1008177
09:00+10n233698 0.0 10081332
12:00+12nw4426100 0.0 10072583
15:00+13nw4622100 0.0 10062987
18:00+12nw2530100 0.0 10072436
21:00+7n2247100 0.0 100936
22 may, sat
sat2200:00+3nw225894 0.0 101114
03:00+1wnw22665 0.0 101219
06:00+6wnw13484 0.0 1013317
09:00+11nnw24275 0.0 10121840
12:00+13nw3322100 0.0 10113461
15:00+12w322597 0.0 10112503
18:00+11nnw233412 0.0 10111159
21:00+5ne0052100 0.0 101210
23 may, sun
sun2300:00+4ne1156100 0.0 101110
03:00+2nne116699 0.0 101110
06:00+7ne2351100 0.0 1010206
09:00+12e3429100 0.0 10081219
12:00+15se2520100 0.0 10063139
15:00+15s6528100 0.0 10052616
18:00+12sse354295 0.0 10061467
21:00+8ese495679 0.1 1006482